Regional Weather Roundup
Issued by NWS Sterling, VA

Home | Current Version | Previous Version | Text Only | Print | Product List | Glossary Off
Versions: 1 2 3 4 5 6 7 8 9 10 11 12 13 14 15 16 17 18 19 20 21 22 23 24 25 26 27

000
ASUS41 KLWX 160511
RWRLWX

REGIONAL WEATHER ROUNDUP
NATIONAL WEATHER SERVICE BALTIMORE MD/WASHINGTON DC
1200 AM EST MON JAN 16 2017

Note: "FAIR" indicates few or no clouds below 12,000 feet
with no significant weather and/or obstructions to visibility.
 TC=TEMPERATURE CELSIUS

 * =Non NWS site. Station does not report precipitation (e.g. rain,
    snow, etc.), thunder, or fog.

DCZ001-MDZ009-015-VAZ040>042-051-053>054-160600-
WASHINGTON METRO

CITY           SKY/WX    TMP DP  RH WIND       PRES   REMARKS
WASHINGTON NAT CLOUDY    40  28  62 SE3       30.43S
DULLES         CLOUDY    39  23  52 CALM      30.41F
ANDREWS AFB    CLOUDY    36  31  81 CALM      30.41R
FT BELVOIR     CLOUDY    39  28  63 CALM      30.42S
QUANTICO       CLOUDY    40  35  83 CALM      30.44S
COLLEGE PARK*  CLOUDY    34  28  80 CALM      30.42S
LEESBURG*      CLOUDY    39  27  60 MISG      30.42S
GAITHERSBURG*  CLOUDY    32  25  74 CALM      30.44F

$$

MDZ006>007-011-014-160600-
BALTIMORE METRO

CITY           SKY/WX    TMP DP  RH WIND       PRES   REMARKS
BWI AIRPORT    MOCLDY    35  25  66 NE5       30.43R
MD SCIENCE CTR   N/A     37  19  48 MISG      30.43S
ANNAPOLIS      PTCLDY    38  28  67 N6        30.43R
FORT MEADE*    PTCLDY    32  28  86 NE3       30.45S

$$

MDZ012-015-019>023-160600-
MARYLAND EASTERN SHORE

CITY           SKY/WX    TMP DP  RH WIND       PRES   REMARKS
OCEAN CITY     CLOUDY    37  34  89 N5        30.42S
SALISBURY      CLOUDY    37  30  75 E5        30.42S
BAY BRIDGE AP* PTCLDY    36  27  69 N3        30.44R
CAMBRIDGE*     CLOUDY    36  32  87 CALM      30.42R
EASTON*        CLOUDY    37  28  70 CALM      30.46R

$$

MDZ017>025-160600-
SOUTHERN MARYLAND

CITY           SKY/WX    TMP DP  RH WIND       PRES   REMARKS
PATUXENT RIVER CLOUDY    39  31  72 CALM      30.43R
ST INIGOES     NOT AVBL
LEONARDTOWN*   CLOUDY    37  28  70 CALM      30.44S

$$

MDZ003>005-160600-
NORTH CENTRAL MARYLAND

CITY           SKY/WX    TMP DP  RH WIND       PRES   REMARKS
FREDERICK*     MOCLDY    30  30 100 N5        30.46S
HAGERSTOWN APT PTCLDY    30  21  69 E6        30.40S
WESTMINSTER*     N/A     27  21  80 CALM      30.40S

$$

MDZ501>502-160600-
WESTERN MARYLAND

CITY           SKY/WX    TMP DP  RH WIND       PRES   REMARKS
OAKLAND*         N/A     32  32 100 CALM      30.29R
CUMBERLAND*    CLOUDY    36  30  80 N3        30.42S

$$

VAZ025>031-160600-
SHENANDOAH VALLEY

CITY           SKY/WX    TMP DP  RH WIND       PRES   REMARKS
WINCHESTER*    CLOUDY    36  23  60 CALM      30.38S
FRONT ROYAL*   NOT AVBL
LURAY*         CLOUDY    37  28  70 N5        30.38S
NEW MARKET*    CLOUDY    37  25  62 CALM      30.37S
STAUNTON*      CLOUDY    40  39  96 CALM      30.38R
WAYNESBORO*    CLOUDY    38  37  96 E5        30.34S

$$

WVZ021-048>050-054>055-160600-
EASTERN WEST VIRGINIA PANHANDLE

CITY           SKY/WX    TMP DP  RH WIND       PRES   REMARKS
MARTINSBURG    CLOUDY    34  26  72 N5        30.40R
PETERSBURG*    CLOUDY    40  34  79 CALM      30.38S

$$

VAZ036>039-050-160600-
CENTRAL FOOTHILLS

CITY           SKY/WX    TMP DP  RH WIND       PRES   REMARKS
CHARLOTTESVILL LGT RAIN  42  39  89 CALM      30.39R FOG
CULPEPER*      CLOUDY    40  29  65 CALM      30.42S
ORANGE*          N/A     39  36  87 CALM      30.42S
GORDONSVILLE*  CLOUDY    40  40  99 N3        30.40R FOG
WARRENTON*     CLOUDY    39  31  71 CALM      30.41S

$$

VAZ055>057-160600-
NORTH AND CENTRAL PIEDMONT

CITY           SKY/WX    TMP DP  RH WIND       PRES   REMARKS
FREDERICKSBRG* CLOUDY    41  35  81 CALM      30.42S
STAFFORD*      CLOUDY    38  35  89 CALM      30.46S

$$

NCZ024-NYZ072-PAZ021-071-VAZ022-071-160600-
OTHER REGIONAL OBSERVATIONS

CITY           SKY/WX    TMP DP  RH WIND       PRES   REMARKS
NEW YORK CITY  CLEAR     32  19  58 CALM      30.43S
PHILADELPHIA   PTCLDY    31  19  61 NW5       30.45R
PITTSBURGH     CLOUDY    26  21  81 CALM      30.36R
ROANOKE        LGT RAIN  42  41  96 SE5       30.37S
RICHMOND       LGT RAIN  41  35  79 S3        30.41S
RALEIGH        CLOUDY    47  38  71 E6        30.36F

$$

ANZ530>537-160600-
MARINE OBSERVATIONS

STATION/POSITION TIME  TEMP    WIND        PRES
                       AIR SEA DIR/SP/G
                 (UTC) (F)     (DEG/KT/KT) (MB)
THOMAS PT LIGHT  0500   37 38   20/  7/  8   N/A
BALT KEY BRIDGE  0442   35      20/  2/  3 1031.0R
COVE POINT       0442   38      10/  3/  4 1030.8R
LEWISETTA        0442   40 42   20/  4/  5 1030.0R
SOLOMONS ISLAND  0442   39 40  340/  1/  2   N/A
PINEY POINT      0448           50/  3/  3   N/A

$$





USA.gov is the U.S. government's official web portal to all federal, state and local government web resources and services.